Wind_Speed
97 96 96 97 96 96 96 96 96 95 94 94 93 94 95 96 95 96 96 96 98 99 100 101 102 101 101 101 101 102 103 104 105 106 107 107 108 108 108 107 107 108 108 108 109 109 110 110 110 110 110 111 112 112 111 111 111 112 111 110 110 110 108 107 104 102 102 103 103 101 101 101 102 106 108 110 113 115 116 116 115 113 110 107 103
104 103 101 101 102 102 101 100 99 99 99 98 98 99 100 102 102 102 102 103 103 104 105 105 105 105 104 104 105 105 106 108 108 108 109 110 111 112 112 112 112 112 112 112 112 113 113 113 113 113 112 112 113 113 113 114 114 114 113 112 111 109 107 106 104 103 102 103 103 103 104 104 105 107 110 111 112 114 115 115 113 110 107 103 100
106 108 107 106 105 106 106 105 104 104 104 104 104 105 106 107 107 107 108 108 109 109 110 110 110 110 109 109 109 109 110 111 111 111 112 113 113 114 115 115 115 116 116 116 116 116 116 115 116 116 116 116 116 116 116 116 116 115 114 113 110 107 106 105 104 102 100 100 102 103 105 106 108 110 112 113 113 113 112 111 108 104 100 98 97
108 109 110 110 109 109 109 110 110 110 110 109 108 109 109 110 111 112 113 114 114 114 114 115 115 114 114 113 113 113 113 113 113 113 114 115 115 116 116 117 117 117 118 118 119 119 118 119 120 120 120 119 118 118 118 117 117 116 114 112 109 107 106 105 104 102 100 100 101 103 104 105 108 110 112 113 112 111 108 105 101 97 94 93 93
109 109 110 110 110 110 111 113 114 115 115 114 113 112 112 112 113 114 116 117 117 117 118 119 119 118 117 117 116 116 116 116 116 116 116 117 117 118 118 118 118 118 118 119 119 120 120 121 122 122 122 122 120 119 118 117 116 115 113 110 109 108 107 106 104 103 102 101 100 101 102 103 104 106 108 109 107 105 103 100 96 94 92 91 91
108 108 108 109 110 110 111 112 114 115 117 117 116 116 115 114 114 115 117 118 118 119 119 120 120 120 119 119 118 118 117 117 117 116 117 117 117 118 118 117 117 117 117 117 118 119 120 121 123 124 123 122 120 118 117 116 114 112 111 109 108 108 107 105 104 103 102 102 100 100 100 100 99 100 102 103 101 98 96 95 95 95 94 93 92
104 106 107 109 110 110 110 111 113 114 116 117 117 117 116 115 116 117 118 119 119 119 120 120 120 120 119 118 118 117 116 115 114 113 113 113 113 113 112 112 113 113 114 115 115 116 117 119 120 121 121 119 117 115 114 113 111 110 109 108 108 107 105 104 103 103 102 100 99 98 96 96 95 95 96 97 96 94 93 91 92 95 96 95 94
101 102 104 106 108 110 111 112 112 113 114 115 116 117 117 117 118 120 121 121 121 121 121 121 121 121 119 117 116 114 112 109 107 105 105 105 104 103 103 104 105 107 109 110 111 111 112 113 115 116 115 114 113 112 111 110 109 108 108 107 106 105 103 102 102 101 99 97 95 94 93 93 94 95 94 93 92 91 91 91 91 92 94 94 94
99 99 100 102 104 108 111 113 113 114 114 115 116 117 118 119 120 121 122 122 121 121 121 122 122 120 118 115 113 111 109 106 103 102 102 102 102 101 102 103 104 104 105 106 107 109 110 111 112 112 111 110 109 109 109 108 108 107 107 105 104 102 101 100 98 97 95 93 91 91 91 93 94 94 93 92 92 91 91 92 91 91 91 92 93
97 97 97 99 102 105 108 111 113 114 114 115 116 116 118 119 120 120 120 120 120 120 120 119 118 116 115 113 112 111 110 108 107 107 107 107 107 107 108 109 109 109 108 109 110 110 109 109 109 110 109 108 108 108 107 107 106 105 104 102 101 99 98 96 94 92 90 89 89 90 92 93 94 94 93 92 92 92 92 92 91 91 91 91 92
96 96 96 97 100 103 105 107 109 112 113 114 115 116 118 119 120 119 118 117 116 116 115 115 113 113 112 112 111 110 110 111 111 112 113 114 114 115 116 116 115 114 113 112 110 109 107 105 105 105 105 105 105 105 105 104 103 101 100 98 97 96 94 93 91 89 88 88 89 91 92 93 93 94 93 92 92 92 92 92 91 91 91 91 91
101 99 97 96 98 99 101 103 105 108 110 112 113 115 116 117 117 115 113 112 111 110 109 109 108 108 108 108 108 109 110 113 115 117 119 120 119 119 119 118 117 114 111 109 106 104 102 101 100 100 100 100 100 100 99 99 98 97 97 96 95 93 92 91 89 88 88 89 90 92 93 93 93 93 93 92 91 91 92 91 91 91 91 91 90
108 105 101 99 98 97 98 99 102 104 105 106 107 107 108 109 109 109 108 108 107 106 105 104 104 104 104 105 108 110 113 116 119 121 121 121 120 118 117 115 112 109 106 104 102 100 99 98 98 97 96 96 96 96 97 97 97 96 96 95 93 92 90 90 89 89 89 89 90 90 92 92 92 92 91 91 90 90 90 90 91 91 91 90 90
115 112 108 105 102 100 100 100 100 100 100 101 101 102 102 104 105 106 105 104 103 103 103 103 103 103 105 108 111 115 117 119 120 120 119 118 117 115 113 110 108 105 104 102 101 100 100 99 98 97 96 95 96 97 97 96 96 96 95 93 92 91 91 90 90 90 90 90 89 89 89 90 90 89 89 89 89 89 88 88 88 90 90 88 88
117 116 114 111 108 106 104 103 102 101 101 101 102 103 103 104 105 105 103 102 101 102 103 104 105 107 109 113 116 118 118 118 118 117 116 114 113 111 109 107 106 105 105 104 103 102 101 100 99 98 97 97 97 96 95 95 96 95 94 92 92 92 92 92 92 92 91 90 89 88 88 89 89 87 86 86 87 86 85 85 85 87 86 85 85
117 117 117 116 114 112 111 110 109 108 108 108 109 109 109 108 108 107 105 104 104 105 107 108 109 111 113 115 116 116 115 114 113 113 112 111 109 107 107 107 107 107 105 104 103 102 101 99 99 99 99 98 97 96 95 96 96 95 94 93 93 93 94 94 94 93 91 89 88 88 88 88 88 86 85 84 84 84 82 82 83 84 83 82 83
118 118 118 118 118 117 116 116 116 116 116 116 116 116 115 115 114 112 111 111 111 112 113 113 113 113 113 113 113 112 111 111 110 109 109 108 106 106 107 108 108 106 105 104 103 102 100 99 100 100 100 98 97 96 97 97 96 95 95 95 94 94 94 94 94 93 91 89 88 87 87 87 86 85 84 82 82 81 80 80 81 82 82 81 81
116 116 117 118 119 119 119 119 119 120 121 122 122 121 121 120 119 119 118 117 117 116 116 115 114 112 110 110 109 109 109 108 107 107 107 106 106 108 109 109 108 106 105 104 103 102 100 101 102 101 100 99 98 99 99 98 97 97 97 96 95 94 94 94 93 92 91 89 88 86 85 84 83 83 82 81 80 80 79 79 80 80 79 79 80
113 113 114 114 115 116 117 117 119 120 122 124 125 124 123 122 122 122 122 121 119 118 117 115 112 109 108 107 107 107 107 106 106 106 106 106 107 109 110 110 108 106 105 105 104 103 102 103 103 102 101 100 100 101 100 99 99 99 98 97 96 94 94 93 92 91 90 89 87 85 84 82 81 80 79 79 78 78 79 79 80 79 78 78 80
109 109 110 110 111 112 113 114 115 117 120 122 123 123 122 121 122 123 122 121 119 117 115 113 111 109 108 107 106 105 105 104 105 105 106 107 107 109 110 110 108 107 106 105 104 104 104 104 104 103 102 102 102 102 102 101 100 100 99 98 96 94 93 92 91 89 88 87 86 85 83 81 80 78 78 77 77 77 77 78 79 79 78 78 78
105 105 105 106 107 108 110 111 112 114 116 118 118 118 117 118 119 119 119 118 116 114 112 109 107 107 107 106 106 105 104 104 105 106 107 108 108 109 110 111 109 107 106 105 105 105 105 105 104 104 103 103 103 104 103 103 102 101 100 98 96 94 92 91 90 88 87 86 85 84 82 80 79 78 76 76 76 76 76 76 77 78 79 79 78
103 103 102 102 103 104 106 107 108 110 111 113 113 113 112 112 113 113 113 112 111 109 108 106 105 105 105 105 105 105 106 106 106 107 108 109 109 110 111 112 111 108 106 106 106 106 106 106 105 105 103 103 104 104 104 104 103 101 100 98 95 93 91 90 89 88 87 86 84 83 82 80 78 77 76 76 75 75 75 74 75 77 78 80 80
103 102 101 100 100 102 102 103 104 105 106 107 108 108 108 107 107 107 107 107 107 106 106 105 104 104 104 105 106 107 108 108 108 108 109 110 110 111 111 112 111 109 108 107 106 106 106 106 106 105 104 104 104 104 104 104 103 101 100 97 95 92 90 89 88 87 86 85 84 83 81 79 77 76 75 75 74 74 73 73 74 77 78 80 82
101 100 99 98 99 100 101 101 102 103 103 104 105 105 104 104 104 105 105 105 105 105 105 105 104 104 105 105 107 108 109 109 109 109 109 110 110 109 109 111 111 110 109 108 107 106 106 106 106 105 105 105 104 104 104 104 103 102 100 97 96 94 92 90 88 86 86 84 83 82 80 78 77 75 74 73 73 73 73 73 75 77 79 80 82
100 99 98 97 98 99 100 100 101 103 103 104 104 103 103 103 103 103 104 104 104 105 105 105 105 105 106 106 107 108 109 109 109 108 107 107 107 106 107 108 109 109 108 107 107 106 106 106 105 106 106 106 106 106 105 104 102 101 100 98 97 96 94 92 90 88 86 84 82 81 79 78 76 75 73 72 72 72 73 73 75 78 80 81 82
100 98 97 97 98 99 99 99 101 102 103 104 104 103 103 103 103 103 104 104 104 105 105 105 105 105 105 105 106 106 107 107 107 105 103 103 103 103 104 106 107 107 107 106 106 106 106 106 105 106 106 107 107 107 105 104 102 101 100 99 98 97 96 96 95 93 90 87 84 81 79 77 76 74 73 71 71 72 73 73 75 78 81 83 84
100 99 98 97 98 99 99 98 100 101 102 103 103 103 102 103 103 102 103 103 103 104 104 103 103 102 102 101 102 102 103 103 102 102 101 100 101 102 103 104 105 105 104 104 105 106 107 107 106 106 107 107 107 106 106 105 104 102 100 99 98 97 97 96 97 96 94 91 87 82 79 76 74 73 71 70 71 73 74 74 75 77 81 85 86
101 100 98 97 98 99 98 97 98 99 100 101 102 101 102 102 102 101 101 102 102 101 100 99 99 98 98 98 98 98 99 99 99 99 100 101 102 103 102 102 103 103 103 104 106 107 107 107 107 107 107 107 107 107 107 106 105 103 101 99 98 96 95 95 96 96 95 91 87 83 79 76 74 72 70 70 72 74 75 76 77 79 82 85 87
100 100 98 98 98 99 99 98 97 98 99 99 99 99 99 100 100 100 100 100 100 99 98 97 96 96 96 96 96 97 98 98 99 100 100 101 103 103 103 102 103 103 103 104 106 107 107 107 108 108 108 108 109 108 107 106 105 104 102 100 98 95 94 94 94 95 94 91 87 83 79 76 73 72 70 71 73 75 77 78 80 82 84 86 87
100 98 97 96 96 98 100 100 98 97 97 98 98 97 97 97 97 97 97 98 98 98 97 96 95 95 95 95 96 97 98 99 100 100 101 102 103 104 104 104 103 103 104 105 106 107 107 109 110 110 110 110 109 109 108 107 105 104 102 100 98 96 95 94 94 93 92 89 86 82 78 74 72 71 71 72 74 76 78 81 83 85 85 85 87
98 97 95 93 93 96 99 101 99 97 96 97 98 98 96 96 95 95 95 96 96 96 96 96 95 95 95 95 96 97 98 99 100 101 102 103 104 104 105 105 104 104 104 105 105 106 108 110 111 111 110 110 109 109 108 107 106 104 103 102 100 97 95 94 92 91 89 87 84 81 76 73 71 71 71 73 73 75 78 82 85 86 85 86 89
93 94 93 92 92 94 97 100 100 98 96 96 97 98 98 97 96 95 95 95 95 96 96 96 95 95 95 95 96 97 98 98 100 101 102 103 104 104 104 104 104 104 104 104 105 107 108 110 111 111 110 109 109 109 108 108 107 106 104 102 99 97 95 93 91 89 87 84 81 78 75 72 70 70 71 72 73 75 78 81 84 85 85 87 90
90 89 89 90 91 92 94 97 99 100 99 98 97 98 98 99 98 97 97 95 95 95 96 96 96 96 95 96 96 97 97 98 99 101 102 102 103 103 103 103 104 103 103 104 106 107 108 109 110 110 109 109 109 109 109 108 107 106 104 102 99 97 95 93 91 88 86 82 79 76 73 72 71 70 71 73 74 76 78 81 82 83 84 87 88
89 86 84 85 88 90 91 93 96 99 99 98 98 98 98 99 100 100 99 97 96 95 95 97 97 97 97 97 97 97 97 98 99 100 101 102 102 102 102 103 103 102 103 105 106 107 107 108 109 109 109 109 109 109 109 108 106 105 103 102 101 99 97 94 90 87 84 81 78 75 72 71 71 70 71 73 75 77 79 80 82 83 85 85 84
86 85 83 83 85 88 89 90 92 95 98 98 97 97 98 99 100 100 100 100 98 97 96 96 97 97 98 98 98 98 98 98 99 100 100 100 101 101 101 101 101 102 104 105 106 105 106 108 108 108 107 108 108 109 109 107 106 104 103 102 101 99 97 93 88 84 81 79 77 74 72 71 71 71 72 74 76 77 79 80 82 84 85 82 78
83 83 83 82 83 85 87 87 88 91 95 96 96 96 97 98 99 99 100 100 100 98 97 96 96 96 97 98 99 100 100 99 99 99 99 99 99 98 98 98 100 103 105 105 105 105 106 106 106 106 106 107 107 108 108 107 105 104 103 102 100 98 94 90 86 83 80 78 76 74 73 72 72 72 73 75 76 77 79 80 82 83 82 78 73
82 82 82 82 82 83 84 84 85 87 91 93 94 94 95 96 97 98 99 99 99 98 97 96 96 96 96 96 98 99 100 99 98 97 97 96 96 96 96 99 102 104 104 104 104 104 105 105 105 105 105 105 105 106 106 106 104 103 101 99 97 94 90 87 84 81 79 78 76 74 73 73 73 74 75 75 76 78 80 81 82 80 76 72 68
81 81 81 82 82 82 82 82 83 84 86 88 90 91 92 94 95 97 98 98 98 97 96 95 95 95 95 95 96 98 98 98 96 95 95 94 95 96 98 101 102 102 102 102 103 104 104 104 104 104 104 104 103 104 104 103 102 100 98 95 93 90 87 84 82 80 78 77 76 74 74 74 74 75 76 76 77 78 79 81 80 76 70 65 65
80 81 81 81 82 82 82 82 82 82 83 85 87 89 90 92 93 95 96 96 96 95 95 94 94 93 93 94 95 96 97 96 95 94 95 95 97 99 100 100 100 100 100 101 102 102 103 103 103 103 102 101 101 100 99 99 98 96 94 92 89 87 84 82 81 79 78 77 75 75 74 74 75 76 77 77 78 78 79 78 76 71 64 60 61
79 80 80 81 81 81 82 82 82 83 83 84 86 88 89 90 92 93 94 94 94 93 93 92 92 92 92 93 93 94 95 95 94 95 96 97 99 99 99 98 98 99 100 100 100 100 100 100 100 100 99 98 97 96 95 95 94 93 91 90 88 85 83 81 79 78 77 76 75 75 74 74 75 75 77 78 79 78 77 75 71 66 60 58 59
77 78 79 80 80 81 81 81 82 83 84 84 84 86 87 89 90 91 92 92 92 91 91 90 90 90 90 91 92 93 94 94 95 95 96 97 98 98 97 97 98 98 98 98 97 97 97 96 96 96 95 94 94 93 93 92 92 91 90 89 87 85 82 80 78 77 77 76 76 75 74 74 74 75 76 78 78 78 75 71 67 62 58 58 59
75 76 77 78 79 79 80 80 81 83 84 84 84 84 85 87 88 88 89 89 90 89 89 88 88 88 89 90 91 91 92 93 94 95 96 97 97 97 96 95 95 94 94 94 94 94 94 93 93 92 92 92 92 92 92 91 91 90 89 88 85 83 81 79 78 77 76 75 75 75 74 74 74 75 76 76 77 75 72 67 64 61 58 57 59
73 74 75 76 77 77 78 78 80 81 82 82 83 83 83 84 84 85 86 87 87 87 87 86 86 87 87 87 88 89 91 92 93 93 94 94 94 94 93 92 91 91 91 91 92 92 92 91 91 90 91 91 91 91 91 91 90 89 88 86 84 82 80 79 78 77 75 74 74 74 74 73 73 74 75 75 74 72 68 64 62 60 57 57 58
71 72 73 74 74 75 75 76 77 78 79 80 80 80 80 81 82 82 84 84 84 84 83 83 83 83 83 84 86 88 90 90 90 91 91 91 91 90 89 88 89 89 90 90 91 91 90 90 89 89 89 90 90 90 90 89 89 87 86 84 82 81 79 78 77 76 74 73 73 72 72 72 72 72 73 73 72 69 65 61 60 59 57 57 57
68 69 70 70 71 72 73 74 75 76 77 77 78 78 79 79 79 80 81 81 80 79 78 78 79 79 81 83 86 87 88 88 88 88 88 88 88 87 87 87 88 88 89 89 89 89 88 88 88 88 88 88 88 88 87 87 86 85 84 82 81 80 79 77 76 75 72 71 70 70 70 71 71 71 71 71 69 66 63 60 59 58 57 56 57
64 65 66 67 68 69 70 71 72 73 74 75 75 76 76 77 77 77 77 76 76 75 75 76 77 79 82 84 85 85 85 85 86 86 86 86 85 85 85 86 86 86 86 86 86 86 86 86 86 86 86 86 85 85 84 83 83 82 81 81 80 79 77 75 73 72 70 69 68 68 68 69 70 70 69 68 66 65 62 60 58 58 57 56 56
61 62 63 63 65 66 67 68 69 69 70 71 72 72 72 72 73 73 73 73 73 73 74 76 78 80 82 83 83 83 83 83 83 83 83 83 83 83 83 84 84 83 83 83 83 83 83 83 83 83 83 82 82 82 81 81 80 80 80 79 78 77 75 72 70 69 68 67 66 66 67 69 70 69 67 66 65 63 61 60 58 58 57 56 54
58 59 60 61 62 62 63 64 65 66 67 68 69 69 69 70 71 71 72 72 73 74 75 77 78 79 80 80 80 80 81 81 80 81 81 81 81 81 80 80 80 80 80 80 80 80 80 80 80 80 80 79 79 79 79 79 79 78 78 77 75 73 72 70 68 68 67 66 66 67 68 69 69 67 64 63 63 62 60 59 58 57 57 56 52
56 57 58 59 59 60 61 62 62 63 64 65 66 67 68 68 69 70 70 71 72 73 74 75 76 76 76 76 77 77 77 77 77 77 77 77 77 77 77 77 77 77 77 77 76 76 77 76 76 76 76 76 77 77 77 76 76 75 75 74 72 71 70 69 68 67 66 66 67 68 69 69 67 64 62 60 60 60 59 58 56 56 57 55 51
55 55 56 57 57 58 59 59 60 61 61 62 63 64 64 65 66 67 67 68 69 70 70 71 72 72 72 73 73 73 73 73 73 73 73 74 74 74 74 74 74 74 74 74 74 74 74 73 73 74 74 74 74 74 74 74 74 73 72 72 71 70 70 68 67 66 66 67 68 69 68 68 66 62 59 58 57 57 57 56 54 54 55 53 49
52 53 53 54 55 56 57 57 58 59 59 60 61 61 62 63 64 64 65 65 66 67 67 67 68 69 69 70 70 71 71 71 71 71 71 71 71 72 72 72 72 72 72 72 72 72 72 72 72 73 73 73 73 73 73 73 72 72 71 70 70 70 69 68 67 67 67 68 68 67 66 65 63 59 56 56 55 55 55 54 52 52 52 50 47
Wind_Direction
266 266 267 267 267 267 266 266 266 266 267 267 267 267 267 268 268 267 268 268 268 269 270 270 271 272 272 273 274 275 275 276 276 277 277 277 278 278 278 278 278 278 278 279 279 280 280 281 281 281 281 281 282 282 282 283 283 284 284 285 285 284 283 282 281 280 279 279 279 279 278 278 278 278 279 279 280 281 282 284 285 286 286 285 284
265 266 266 266 265 265 265 265 265 265 266 266 266 266 266 266 266 267 267 267 268 268 270 271 271 272 272 273 273 274 275 275 276 276 276 277 277 278 278 279 279 279 279 279 279 280 280 281 281 281 281 281 281 281 281 282 283 283 284 284 284 282 281 281 280 279 279 279 280 280 279 278 278 277 278 278 278 279 281 283 284 285 284 284 282
263 264 264 264 263 263 263 264 264 264 265 266 266 266 265 265 265 266 266 267 267 269 270 271 271 272 272 273 273 274 274 275 275 276 276 276 277 277 278 278 278 278 279 279 279 279 280 280 280 280 280 281 281 280 280 281 282 283 283 283 282 281 280 280 280 280 279 279 280 281 281 280 279 278 278 279 279 280 281 282 282 283 282 281 280
263 263 262 261 261 261 261 261 262 264 265 265 266 266 265 265 265 265 266 266 267 268 269 270 271 272 272 273 273 274 274 275 275 276 276 276 276 277 277 277 278 278 278 278 278 279 279 280 280 280 280 280 281 281 281 282 283 283 283 282 281 280 280 280 280 279 279 279 279 281 282 281 280 279 279 280 280 282 282 282 282 281 280 279 278
262 262 261 260 260 259 259 259 260 262 263 265 265 265 266 266 266 266 267 267 268 268 269 270 271 272 272 273 273 274 275 276 276 277 277 277 277 278 278 278 278 278 278 278 278 279 279 279 280 280 280 281 282 282 282 283 283 283 282 281 279 279 280 280 280 279 279 279 279 281 283 283 281 280 280 280 281 282 283 283 283 282 279 278 277
260 259 259 259 260 259 258 258 259 259 260 262 263 265 266 266 267 267 267 268 268 269 270 271 272 272 273 274 274 275 276 276 277 278 278 278 278 278 279 279 278 278 278 278 278 279 279 279 280 280 281 282 282 282 282 282 282 281 280 279 279 279 279 280 280 280 280 280 280 281 283 283 281 280 279 280 281 281 281 282 282 281 279 278 277
258 257 257 257 258 259 259 259 259 259 259 260 261 263 264 265 265 266 266 267 268 269 270 271 272 273 274 275 276 276 277 277 278 278 278 279 279 280 280 280 279 279 278 277 277 278 278 279 280 280 281 281 281 281 281 281 280 280 279 279 279 279 279 280 280 280 280 281 281 282 282 282 281 279 279 279 280 281 280 280 279 279 279 278 278
258 256 256 256 256 257 258 258 259 259 260 260 261 261 262 263 263 264 265 266 267 269 270 271 272 273 275 276 276 277 277 278 278 278 278 278 279 279 280 280 280 280 279 278 278 278 279 279 279 280 280 280 280 280 280 279 279 279 279 279 279 279 279 280 280 281 281 282 282 282 282 281 281 281 280 280 280 280 280 279 278 277 277 278 278
259 258 256 256 256 256 257 258 258 259 260 260 261 261 262 262 262 264 265 266 267 268 269 271 272 273 274 274 274 274 275 275 275 275 276 276 277 278 278 279 279 279 279 279 279 280 279 279 279 279 279 280 280 279 278 278 279 279 279 279 279 279 280 280 281 282 282 283 283 283 282 282 282 282 282 282 281 281 280 279 278 277 277 277 277
261 260 259 258 257 256 256 257 258 258 259 260 261 262 262 263 263 264 265 266 267 268 269 270 271 272 272 272 272 272 272 273 273 274 275 277 279 280 281 281 281 281 281 281 281 281 280 279 279 279 279 279 278 277 277 278 278 279 279 279 280 280 281 282 282 283 283 283 284 283 283 283 283 282 282 281 281 281 280 280 279 279 278 277 276
264 263 262 261 259 257 257 257 257 258 259 260 262 262 263 264 265 266 267 268 269 269 269 269 269 270 270 271 271 273 274 276 277 278 280 281 283 284 284 284 284 284 283 283 283 282 282 280 279 278 277 277 276 276 277 278 278 279 280 281 281 282 282 283 283 283 284 284 284 284 283 283 283 283 282 281 281 281 280 280 279 278 278 277 276
268 267 266 264 261 259 259 258 259 259 259 260 262 263 264 265 266 267 267 268 268 268 269 269 270 271 272 274 276 279 281 282 283 284 284 284 284 284 284 284 283 283 283 283 283 283 282 281 280 278 277 277 277 278 279 280 281 281 282 282 283 283 284 284 284 285 285 285 285 284 284 284 284 284 283 282 282 282 281 281 280 279 278 277 276
271 270 269 267 264 263 262 262 261 261 261 261 263 264 265 265 266 266 267 267 268 270 271 272 273 275 277 280 282 283 284 284 284 284 284 283 282 282 282 282 283 283 283 284 284 284 284 284 283 282 282 282 282 283 283 283 283 283 283 283 284 284 284 284 285 286 286 285 285 284 284 284 284 284 283 283 282 282 281 281 280 279 278 277 276
271 271 271 270 268 267 266 265 265 264 263 263 265 266 267 266 267 267 268 269 271 272 274 275 277 279 281 282 283 284 284 284 283 283 282 282 281 282 282 283 283 284 285 286 286 286 286 286 286 285 285 285 285 284 284 284 284 284 284 284 285 285 285 286 287 287 286 285 284 284 284 284 284 284 283 282 281 281 280 280 279 278 278 277 275
269 270 271 271 271 270 269 269 269 268 268 268 269 270 270 269 269 270 270 271 273 274 276 277 279 281 282 283 283 283 283 282 282 281 281 280 281 281 282 284 284 285 286 286 287 287 286 287 287 287 286 285 284 284 284 284 284 284 285 285 286 286 287 288 287 287 286 285 285 284 284 283 283 283 282 281 280 279 279 278 277 275 275 274 273
267 268 269 270 271 271 271 271 271 271 271 271 272 272 271 271 271 272 273 273 275 276 278 279 280 281 282 282 282 282 281 280 280 279 279 280 281 282 283 284 284 284 285 285 286 286 286 287 287 286 285 285 284 285 285 285 285 285 286 287 287 288 288 288 288 288 287 287 286 286 285 284 283 282 282 281 280 279 278 277 276 274 273 271 270
264 265 266 267 268 269 269 270 270 270 270 270 271 271 271 271 272 273 273 274 276 277 278 279 279 280 281 281 280 280 279 278 278 279 279 280 281 282 282 282 282 283 284 285 285 285 286 286 286 285 285 285 286 286 285 285 286 287 287 287 288 288 289 288 289 289 289 289 288 287 286 285 284 283 282 281 280 278 277 276 275 274 273 272 271
261 262 263 264 265 266 267 267 267 267 267 268 268 268 269 270 271 272 273 274 275 276 276 277 278 278 279 278 278 277 278 278 278 279 280 281 281 281 281 281 282 283 284 284 285 285 286 285 285 285 286 286 286 286 286 286 287 287 287 288 288 289 289 289 290 290 290 289 288 288 287 286 285 284 282 281 280 278 277 275 274 274 273 273 272
261 261 261 262 263 264 264 265 265 265 265 265 266 266 267 268 270 271 272 273 274 275 276 277 277 277 277 276 276 276 277 278 278 279 279 280 280 280 281 281 282 283 284 284 285 285 285 285 285 286 286 286 286 286 286 286 287 287 287 288 288 289 289 290 290 290 290 290 289 289 288 287 285 284 283 281 280 279 277 276 274 273 272 271 271
261 261 261 262 262 262 263 263 264 264 264 264 265 266 267 268 269 270 272 272 273 274 275 276 276 276 275 275 276 276 277 277 277 278 278 278 279 279 280 281 281 282 283 283 284 284 284 284 285 285 285 286 286 286 286 286 286 287 287 288 289 289 290 290 290 290 290 290 290 290 289 288 287 286 284 283 281 280 279 277 275 274 273 271 271
261 261 261 261 261 262 262 262 263 263 264 264 265 266 267 268 269 270 271 272 272 273 273 274 274 274 274 275 275 276 276 276 276 277 277 278 278 279 280 280 280 281 282 282 283 283 283 283 284 284 284 285 285 286 286 286 287 287 288 288 289 289 290 290 290 290 290 290 290 290 290 289 288 287 286 284 283 282 281 279 278 277 276 275 274
259 260 260 260 261 261 261 262 262 263 264 265 265 266 267 267 268 268 269 270 270 271 271 271 272 272 273 274 275 276 276 276 276 276 277 278 279 279 280 280 281 281 281 282 282 282 282 283 283 283 284 285 285 286 286 286 287 287 288 288 289 290 290 290 290 291 291 290 290 290 289 289 288 288 286 285 284 282 281 281 280 279 279 278 277
258 258 258 259 259 260 261 261 262 262 263 264 264 265 265 266 266 267 267 268 269 269 270 270 271 272 273 274 274 275 275 275 276 276 277 277 278 279 279 280 281 281 281 281 281 281 282 282 283 284 284 285 285 285 286 286 287 288 289 289 290 291 291 291 291 291 291 291 291 290 289 288 288 287 286 285 284 282 281 281 281 280 280 279 279
258 257 257 257 257 258 259 259 260 261 262 262 263 263 264 264 265 265 266 267 268 268 269 270 271 272 272 272 273 274 274 275 275 275 276 276 277 278 278 279 280 280 280 280 280 281 282 282 283 284 284 284 285 285 286 287 288 288 290 291 292 292 292 292 291 291 291 291 291 290 290 289 287 286 285 284 283 282 281 282 281 281 280 280 280
260 259 258 257 256 256 257 257 258 259 260 260 261 261 262 263 263 264 265 266 267 267 268 269 270 270 271 271 271 272 273 273 274 274 274 275 276 276 277 277 278 279 279 280 280 281 282 282 283 283 284 284 285 285 286 287 288 289 290 292 292 293 293 293 293 293 293 292 292 291 290 289 287 286 285 284 283 282 282 282 282 281 280 279 280
262 261 260 259 257 256 255 255 256 257 257 258 259 260 260 261 262 263 264 265 265 266 267 268 268 269 269 270 270 271 271 272 273 273 274 274 275 275 275 276 276 277 278 280 281 281 281 281 282 282 283 284 284 285 286 287 288 289 290 291 292 292 293 293 293 293 293 293 292 291 289 288 287 286 285 284 284 283 282 281 281 281 280 279 280
262 262 261 260 259 258 257 256 256 256 257 257 258 259 260 260 261 261 262 263 264 265 265 266 267 268 268 269 269 270 270 271 272 273 273 273 273 273 274 275 276 277 278 279 280 280 280 281 282 282 283 283 284 285 287 288 289 289 290 290 291 291 291 292 292 292 292 292 292 291 290 289 287 286 286 286 285 284 282 281 280 280 280 279 279
262 262 262 261 261 261 260 259 258 258 257 257 258 258 259 259 260 260 261 262 263 263 264 265 266 266 267 267 268 269 269 270 271 272 272 272 273 273 274 275 276 277 277 278 278 279 280 281 281 282 282 283 284 285 286 286 287 288 289 290 290 290 290 291 291 291 291 291 291 291 290 289 288 288 287 287 287 285 283 282 280 279 278 278 278
261 261 262 262 262 262 262 261 260 260 260 259 259 259 259 260 260 260 260 261 261 262 262 263 264 264 265 266 267 267 268 269 269 270 271 272 273 273 273 274 274 275 276 276 277 278 279 280 280 281 282 282 283 284 284 285 286 288 289 289 290 290 291 291 291 291 290 290 291 291 290 289 289 289 288 288 288 287 284 282 280 279 277 277 278
261 261 260 260 259 260 261 262 262 262 262 262 262 261 260 260 260 260 260 260 261 261 262 262 263 263 264 265 265 266 267 267 268 269 270 270 271 272 272 273 273 274 274 275 276 277 278 278 279 280 281 281 282 283 284 285 286 287 288 289 290 291 292 292 291 290 290 290 290 290 289 289 289 289 289 289 289 288 286 283 280 278 277 277 277
261 262 261 259 257 257 259 261 262 262 262 262 263 263 262 261 261 261 261 261 262 262 262 262 262 263 264 264 265 265 266 267 268 268 269 269 270 271 271 272 273 273 274 274 275 275 276 277 278 279 280 281 282 283 284 285 287 288 289 289 290 292 292 292 291 291 290 290 290 289 289 289 289 289 289 288 287 287 286 283 280 279 278 278 277
262 262 262 261 259 258 259 261 262 263 262 262 263 264 264 264 263 262 262 262 263 263 264 264 264 264 264 265 265 266 266 267 267 268 269 269 270 270 271 272 273 273 274 275 275 276 276 277 278 279 280 281 282 283 284 285 287 288 289 290 291 292 292 292 292 291 290 290 289 290 290 290 289 288 288 287 285 285 283 282 280 279 279 278 278
264 263 263 263 262 260 260 261 262 263 263 262 263 263 264 265 265 265 264 263 264 264 265 266 266 265 265 265 266 266 267 267 267 268 269 269 270 271 272 272 273 273 274 275 275 275 276 277 278 279 280 281 282 283 284 285 287 288 289 290 291 292 292 292 292 291 290 290 290 290 290 290 289 288 287 286 284 283 282 280 279 279 278 277 278
267 266 264 263 263 262 261 261 262 263 263 263 263 264 264 265 265 266 266 266 265 265 265 266 267 267 267 267 267 267 267 267 268 268 268 269 269 270 271 272 273 274 274 274 274 275 276 277 277 279 280 281 282 283 284 285 287 288 289 290 291 292 292 292 291 290 290 290 290 290 290 290 289 288 287 286 285 283 282 280 279 278 277 277 278
267 266 265 263 262 262 262 262 262 263 264 264 264 264 264 264 265 266 267 267 267 267 266 266 267 267 267 268 268 268 268 268 268 268 268 268 269 269 271 272 274 274 274 274 274 275 276 276 278 279 280 281 282 283 284 286 287 288 289 290 291 291 291 291 290 290 290 291 291 291 291 290 289 288 287 286 284 283 282 280 279 278 278 278 280
265 265 264 263 262 262 262 261 261 261 263 264 264 264 264 264 265 266 266 267 267 268 267 267 267 267 267 267 268 268 268 268 268 268 268 269 269 270 272 273 273 273 273 274 274 275 276 277 278 279 280 281 282 283 284 286 287 288 289 289 289 289 290 290 290 290 291 291 291 292 291 290 289 288 287 285 284 282 280 279 278 278 279 281 282
264 264 264 263 262 261 261 260 260 259 260 262 262 263 263 263 264 264 265 266 267 267 267 268 268 268 267 267 267 268 268 268 268 268 269 269 270 271 272 272 271 272 273 274 275 276 276 277 278 279 280 281 282 283 284 285 286 287 287 287 288 288 288 289 290 290 291 292 292 292 291 291 290 288 287 285 284 282 281 279 278 279 281 283 284
264 263 263 263 263 262 261 261 260 259 259 260 261 261 262 262 262 263 264 264 265 266 266 267 267 267 267 267 267 267 268 268 268 268 269 270 270 270 269 269 270 271 273 274 274 275 276 277 278 279 280 280 281 282 283 284 285 286 286 286 287 287 288 289 290 290 291 292 292 292 291 291 290 289 287 285 284 282 281 280 280 281 283 285 285
263 263 262 262 262 262 261 261 260 260 259 259 260 260 260 260 261 262 262 263 264 264 264 265 265 265 265 265 265 266 267 267 268 269 269 269 268 268 268 269 270 271 272 272 273 274 275 276 277 278 279 280 281 281 282 283 284 284 285 285 286 287 288 289 290 290 291 291 291 291 291 290 289 288 287 285 283 281 280 280 281 282 284 285 284
262 262 262 262 262 261 261 261 260 260 259 258 258 258 259 259 259 260 261 261 262 262 262 262 262 262 263 264 264 265 266 266 267 267 267 267 267 268 269 270 270 271 271 272 273 274 275 277 277 278 279 280 281 281 282 282 283 284 284 285 286 286 287 288 289 290 291 290 290 290 290 289 288 287 286 284 283 281 280 281 283 285 286 285 284
262 262 262 262 261 261 261 261 261 260 260 259 258 258 258 258 259 259 259 260 260 260 260 260 260 261 261 262 263 264 264 265 266 266 266 266 267 268 269 269 270 271 272 273 274 275 276 277 277 278 279 280 281 281 282 283 283 284 284 285 285 286 287 288 289 289 289 289 289 289 289 288 287 286 285 283 282 282 282 283 285 287 287 285 283
261 261 261 260 260 260 260 260 260 260 260 259 259 258 258 258 258 258 259 259 259 259 259 259 259 260 261 261 262 263 264 265 265 265 266 266 267 268 269 271 272 273 274 275 275 276 276 277 277 278 279 280 281 281 282 282 283 283 283 284 285 286 287 288 288 288 288 288 288 288 288 287 286 285 284 282 282 282 283 285 287 288 287 285 283
260 260 260 260 260 259 259 259 259 259 259 259 259 259 258 258 258 258 258 258 258 258 259 260 260 261 262 263 264 265 265 265 266 266 267 268 269 270 271 272 273 274 275 275 276 276 276 277 277 278 279 280 280 281 281 281 282 282 283 283 284 285 286 287 287 287 287 287 287 287 286 285 284 283 282 282 282 283 285 287 288 287 286 285 283
259 259 259 259 259 259 259 259 259 259 259 259 259 259 259 259 258 258 258 258 259 260 261 262 263 264 265 266 266 266 266 267 267 268 269 269 270 271 272 273 274 274 274 275 275 276 276 277 278 278 279 279 279 280 280 280 281 281 282 283 284 285 286 286 286 286 286 286 286 285 285 284 283 282 281 281 282 284 286 287 287 287 286 285 283
259 259 259 259 259 259 259 259 259 259 259 259 259 259 260 259 259 260 260 260 261 262 263 264 265 266 266 266 265 266 266 267 268 268 269 270 271 272 272 273 273 273 274 274 275 276 276 277 277 277 277 278 278 278 279 279 280 281 283 284 284 285 285 285 285 285 285 285 284 284 283 282 282 281 281 282 284 286 287 288 287 286 285 284 283
259 259 259 258 258 258 258 258 258 258 259 259 259 259 260 260 261 262 263 263 264 265 265 265 265 264 264 264 264 265 266 267 267 268 269 270 271 271 272 272 272 272 273 274 274 274 275 275 276 276 276 276 277 278 279 280 281 282 283 283 283 283 283 283 284 284 284 284 283 282 282 281 280 280 281 283 285 287 288 287 286 285 284 283 281
260 259 259 258 258 258 258 258 258 258 258 259 260 260 261 262 262 263 263 264 264 264 264 263 262 262 263 264 265 265 266 267 267 268 269 269 270 270 270 270 271 271 272 272 273 273 273 274 274 275 276 276 277 278 279 280 281 281 281 282 282 282 282 283 283 283 283 283 282 282 281 280 280 281 283 285 286 287 287 287 286 284 283 280 279
262 261 260 259 259 258 258 257 258 258 258 258 259 259 260 260 261 261 261 261 261 261 261 262 262 263 263 264 265 265 266 266 267 267 268 268 269 269 269 270 270 270 270 270 271 271 272 272 273 274 275 277 278 278 279 279 279 279 280 280 281 281 282 283 283 282 282 282 281 280 279 279 280 281 283 285 286 286 286 285 284 283 281 279 277
262 262 261 261 260 260 259 259 259 258 258 259 259 259 259 259 260 260 260 261 261 261 261 262 262 263 263 264 264 264 265 266 266 266 267 267 268 268 268 269 269 269 269 270 270 271 272 273 274 275 275 276 276 277 277 277 278 278 279 280 281 281 282 282 282 282 282 281 280 278 278 278 280 282 283 284 284 284 283 282 281 279 278 277 276
262 262 262 261 261 261 261 260 260 260 260 260 260 260 260 260 260 260 260 260 261 261 261 262 262 263 263 264 264 264 265 265 266 266 266 266 267 267 268 268 269 269 270 271 271 272 273 274 274 274 275 275 275 275 276 276 277 278 279 280 281 281 281 281 281 280 279 278 277 277 278 279 280 282 283 282 282 281 280 279 278 276 274 274 273
262 262 261 261 260 260 260 260 260 260 260 259 259 259 259 259 259 259 260 260 260 260 261 261 262 262 263 263 264 264 265 265 265 266 266 266 267 267 268 268 269 270 270 271 272 273 273 273 273 274 274 274 275 275 276 277 277 278 279 280 280 279 279 279 279 278 277 276 276 276 277 279 280 281 281 281 279 278 277 276 274 272 272 272 271
Height
10545 10548 10548 10548 10549 10549 10548 10546 10544 10544 10544 10543 10542 10539 10536 10534 10533 10532 10532 10531 10528 10527 10526 10524 10523 10523 10523 10521 10519 10516 10513 10510 10508 10507 10505 10503 10502 10501 10501 10501 10499 10498 10496 10496 10494 10492 10491 10489 10487 10484 10482 10481 10478 10475 10473 10470 10468 10466 10464 10462 10459 10457 10457 10455 10454 10454 10444 10433 10430 10430 10429 10430 10426 10416 10409 10407 10401 10395 10392 10390 10386 10384 10382 10379 10375
10532 10533 10535 10536 10537 10536 10533 10533 10532 10532 10531 10530 10529 10526 10522 10520 10518 10518 10518 10515 10514 10513 10511 10510 10509 10509 10508 10507 10505 10502 10499 10495 10494 10493 10492 10490 10488 10486 10485 10484 10483 10482 10481 10480 10479 10477 10475 10473 10472 10469 10467 10465 10462 10460 10458 10456 10454 10452 10449 10448 10445 10441 10440 10438 10437 10437 10433 10422 10414 10411 10411 10414 10413 10404 10395 10393 10390 10385 10381 10377 10372 10370 10367 10364 10361
10521 10519 10519 10520 10521 10519 10518 10519 10518 10517 10517 10516 10515 10512 10508 10506 10505 10505 10503 10501 10501 10499 10497 10495 10494 10493 10493 10492 10490 10488 10485 10482 10480 10479 10478 10476 10474 10472 10471 10469 10468 10467 10466 10465 10463 10461 10459 10458 10456 10454 10451 10450 10447 10445 10444 10441 10439 10438 10435 10432 10429 10426 10423 10421 10420 10420 10419 10412 10401 10393 10392 10393 10393 10387 10378 10372 10373 10372 10368 10364 10360 10357 10354 10350 10345
10507 10504 10503 10504 10504 10504 10503 10503 10501 10500 10500 10500 10498 10496 10494 10492 10492 10490 10488 10487 10486 10485 10482 10480 10479 10478 10477 10476 10474 10473 10471 10469 10467 10465 10463 10460 10459 10457 10455 10454 10453 10452 10451 10449 10447 10445 10443 10441 10438 10436 10434 10433 10431 10429 10428 10426 10424 10421 10419 10416 10413 10410 10406 10404 10403 10402 10402 10400 10390 10379 10374 10373 10373 10370 10361 10353 10353 10354 10351 10348 10346 10344 10340 10336 10333
10489 10488 10487 10487 10487 10487 10487 10487 10487 10486 10483 10481 10480 10479 10478 10478 10477 10475 10473 10471 10470 10469 10467 10464 10463 10462 10461 10460 10459 10458 10456 10455 10453 10450 10448 10445 10442 10440 10439 10438 10437 10436 10434 10433 10431 10429 10427 10425 10422 10420 10418 10417 10416 10415 10413 10411 10409 10405 10403 10400 10397 10393 10390 10387 10385 10384 10383 10382 10377 10367 10358 10354 10353 10351 10344 10338 10338 10338 10333 10330 10329 10327 10324 10321 10319
10471 10471 10471 10470 10469 10469 10470 10470 10472 10471 10468 10466 10465 10463 10463 10463 10461 10458 10456 10454 10454 10453 10451 10448 10446 10445 10444 10444 10444 10443 10442 10440 10439 10436 10433 10429 10427 10425 10424 10423 10421 10420 10419 10418 10416 10414 10412 10409 10407 10404 10403 10403 10402 10400 10398 10396 10393 10390 10387 10384 10381 10377 10374 10370 10368 10366 10364 10362 10360 10354 10345 10338 10334 10332 10328 10324 10324 10324 10321 10318 10313 10307 10305 10305 10304
10452 10453 10453 10453 10453 10453 10453 10453 10453 10452 10452 10452 10451 10450 10449 10447 10444 10441 10438 10438 10438 10437 10435 10433 10431 10430 10430 10429 10428 10427 10426 10426 10424 10422 10418 10414 10412 10411 10410 10408 10407 10405 10404 10402 10400 10399 10397 10394 10392 10390 10389 10388 10387 10386 10383 10380 10377 10374 10371 10368 10365 10361 10357 10354 10351 10349 10347 10344 10341 10336 10331 10323 10315 10314 10314 10312 10310 10309 10309 10309 10304 10293 10287 10288 10288
10431 10434 10436 10437 10439 10438 10436 10434 10434 10434 10435 10435 10434 10434 10432 10430 10428 10425 10423 10423 10423 10422 10420 10418 10417 10416 10416 10415 10413 10411 10411 10411 10410 10407 10403 10399 10398 10397 10396 10394 10393 10391 10389 10388 10385 10384 10381 10379 10377 10375 10374 10373 10372 10370 10368 10365 10362 10359 10355 10352 10348 10345 10341 10338 10335 10332 10330 10328 10323 10319 10315 10308 10299 10297 10299 10298 10298 10296 10293 10292 10293 10286 10277 10274 10272
10410 10415 10418 10422 10424 10422 10419 10417 10417 10418 10418 10417 10416 10415 10414 10413 10412 10410 10409 10409 10409 10408 10407 10405 10403 10403 10402 10401 10399 10397 10397 10396 10395 10391 10388 10384 10383 10383 10381 10379 10377 10375 10374 10372 10370 10368 10366 10364 10361 10360 10359 10358 10357 10355 10352 10349 10346 10342 10339 10336 10332 10329 10325 10322 10319 10317 10314 10312 10307 10302 10298 10292 10286 10284 10284 10283 10282 10283 10279 10275 10275 10274 10269 10265 10259
10394 10397 10400 10405 10405 10403 10402 10402 10402 10402 10401 10400 10399 10398 10396 10395 10395 10396 10396 10395 10395 10395 10394 10392 10391 10389 10387 10386 10385 10384 10383 10381 10378 10374 10371 10368 10368 10366 10364 10362 10360 10358 10357 10355 10353 10351 10350 10349 10347 10345 10345 10343 10341 10339 10336 10333 10330 10326 10322 10319 10316 10312 10309 10306 10304 10302 10300 10297 10292 10287 10282 10277 10272 10270 10271 10270 10268 10267 10264 10261 10260 10258 10255 10253 10248
10378 10380 10383 10385 10384 10383 10384 10385 10386 10386 10385 10384 10383 10381 10379 10378 10379 10381 10382 10381 10380 10379 10378 10378 10377 10375 10373 10372 10370 10369 10367 10364 10360 10357 10353 10352 10351 10349 10346 10344 10342 10340 10339 10338 10336 10335 10334 10333 10332 10330 10329 10327 10325 10322 10320 10316 10313 10309 10306 10303 10299 10296 10293 10291 10289 10287 10285 10282 10277 10271 10267 10264 10259 10255 10255 10256 10254 10250 10247 10245 10246 10244 10241 10239 10236
10360 10361 10364 10364 10364 10366 10367 10368 10369 10369 10369 10368 10366 10364 10362 10363 10365 10367 10367 10366 10364 10363 10363 10363 10362 10360 10358 10357 10356 10353 10351 10347 10343 10340 10337 10336 10334 10331 10329 10327 10325 10324 10324 10322 10321 10319 10318 10316 10314 10312 10311 10310 10308 10305 10302 10299 10296 10293 10290 10286 10284 10281 10278 10276 10274 10273 10270 10267 10262 10256 10251 10248 10245 10240 10239 10240 10239 10234 10231 10229 10229 10228 10226 10223 10223
10337 10341 10345 10346 10347 10349 10351 10351 10352 10352 10352 10351 10350 10347 10347 10348 10350 10350 10350 10350 10348 10348 10348 10346 10345 10345 10344 10343 10341 10338 10335 10332 10328 10324 10321 10318 10316 10314 10312 10310 10310 10309 10308 10306 10305 10303 10300 10297 10295 10294 10293 10292 10291 10288 10285 10282 10279 10277 10274 10271 10268 10266 10263 10261 10260 10259 10256 10252 10248 10242 10236 10233 10231 10226 10224 10224 10224 10220 10215 10214 10212 10210 10210 10209 10207
10316 10320 10324 10327 10330 10332 10333 10334 10335 10336 10336 10335 10333 10332 10332 10332 10332 10332 10333 10334 10333 10332 10331 10330 10330 10330 10330 10328 10325 10323 10320 10316 10312 10308 10305 10302 10300 10298 10296 10295 10294 10293 10291 10289 10287 10285 10283 10280 10279 10278 10277 10276 10274 10271 10269 10266 10264 10261 10258 10256 10253 10250 10248 10246 10245 10243 10239 10236 10233 10228 10222 10218 10216 10213 10210 10209 10209 10207 10202 10200 10197 10193 10194 10194 10190
10299 10301 10304 10307 10310 10312 10315 10317 10319 10320 10320 10320 10318 10317 10316 10315 10314 10314 10316 10318 10317 10316 10315 10315 10316 10315 10314 10313 10310 10308 10305 10300 10296 10292 10289 10286 10285 10283 10282 10281 10279 10277 10275 10273 10272 10269 10267 10265 10264 10263 10261 10259 10257 10255 10253 10251 10248 10245 10243 10240 10238 10236 10233 10231 10229 10226 10223 10219 10216 10213 10208 10204 10201 10198 10196 10194 10193 10192 10189 10186 10182 10181 10183 10182 10175
10284 10286 10288 10290 10291 10294 10297 10301 10303 10304 10304 10304 10302 10301 10299 10298 10296 10297 10299 10301 10301 10301 10301 10300 10300 10300 10300 10299 10296 10293 10290 10284 10280 10277 10273 10272 10272 10270 10268 10266 10263 10261 10260 10259 10257 10255 10253 10252 10250 10247 10245 10242 10241 10240 10238 10235 10233 10230 10228 10226 10224 10221 10218 10216 10213 10209 10206 10204 10200 10196 10192 10189 10186 10183 10180 10178 10178 10177 10175 10171 10166 10165 10170 10169 10163
10269 10272 10274 10274 10274 10277 10280 10284 10286 10287 10287 10286 10286 10284 10282 10281 10281 10281 10283 10285 10286 10287 10286 10286 10286 10286 10286 10284 10281 10277 10273 10268 10265 10263 10260 10259 10259 10256 10252 10249 10248 10247 10246 10245 10243 10241 10240 10238 10235 10232 10229 10227 10226 10225 10222 10220 10219 10216 10214 10211 10210 10207 10203 10200 10198 10194 10191 10188 10185 10181 10177 10174 10172 10169 10165 10163 10161 10160 10160 10157 10151 10149 10152 10152 10149
10254 10257 10259 10259 10259 10260 10262 10266 10268 10268 10269 10268 10267 10267 10266 10266 10266 10267 10268 10270 10271 10271 10271 10271 10272 10273 10272 10270 10265 10260 10257 10254 10252 10250 10247 10245 10245 10240 10235 10234 10234 10233 10232 10230 10229 10228 10226 10223 10219 10216 10214 10213 10212 10210 10207 10206 10205 10202 10200 10198 10195 10193 10189 10186 10183 10179 10176 10173 10169 10166 10163 10159 10157 10155 10152 10149 10146 10143 10143 10141 10136 10134 10135 10134 10132
10236 10239 10242 10243 10244 10244 10244 10246 10248 10250 10250 10249 10248 10248 10250 10251 10251 10251 10252 10254 10255 10254 10255 10256 10256 10257 10256 10253 10250 10246 10243 10241 10239 10237 10234 10232 10231 10225 10220 10219 10219 10218 10217 10216 10215 10213 10211 10208 10205 10202 10200 10199 10197 10194 10192 10191 10190 10188 10186 10184 10182 10179 10176 10172 10169 10166 10162 10158 10154 10151 10146 10143 10142 10140 10138 10136 10132 10128 10126 10123 10121 10119 10120 10119 10115
10217 10221 10224 10225 10226 10227 10227 10227 10229 10230 10230 10229 10229 10231 10234 10236 10235 10235 10235 10236 10238 10238 10239 10240 10240 10240 10238 10236 10234 10232 10230 10228 10226 10223 10219 10217 10216 10212 10206 10204 10205 10204 10203 10203 10202 10199 10196 10194 10191 10188 10187 10185 10182 10179 10177 10176 10175 10173 10171 10170 10168 10165 10162 10159 10155 10152 10149 10145 10140 10136 10132 10128 10127 10124 10122 10120 10117 10113 10110 10106 10104 10102 10102 10102 10100
10200 10203 10206 10208 10208 10209 10210 10210 10212 10212 10211 10211 10213 10216 10219 10220 10220 10220 10220 10220 10221 10222 10222 10224 10224 10223 10221 10220 10219 10217 10215 10213 10212 10209 10205 10202 10202 10198 10192 10189 10189 10190 10190 10190 10188 10184 10182 10179 10176 10174 10174 10172 10167 10164 10163 10161 10160 10159 10157 10155 10154 10151 10149 10146 10141 10138 10135 10132 10127 10123 10119 10115 10113 10109 10106 10104 10101 10098 10095 10091 10088 10086 10083 10082 10082
10184 10186 10188 10190 10191 10192 10193 10194 10195 10196 10196 10196 10198 10200 10202 10203 10204 10204 10204 10204 10205 10206 10206 10207 10208 10208 10207 10205 10203 10201 10199 10197 10197 10195 10192 10188 10186 10184 10179 10173 10173 10175 10176 10175 10173 10169 10167 10165 10161 10161 10161 10158 10153 10151 10148 10147 10145 10144 10142 10140 10139 10137 10134 10131 10128 10124 10121 10117 10113 10109 10105 10101 10099 10096 10092 10090 10087 10083 10080 10077 10073 10070 10067 10063 10061
10166 10170 10172 10174 10176 10176 10177 10178 10179 10181 10182 10182 10183 10184 10185 10187 10188 10188 10188 10188 10189 10189 10191 10191 10192 10193 10193 10191 10188 10185 10182 10181 10181 10180 10178 10174 10172 10171 10166 10160 10159 10160 10161 10160 10157 10155 10153 10149 10147 10147 10146 10143 10140 10137 10134 10132 10130 10128 10126 10124 10122 10120 10118 10116 10114 10111 10107 10103 10099 10095 10090 10087 10086 10083 10079 10077 10073 10069 10065 10063 10059 10055 10051 10049 10044
10149 10153 10156 10159 10160 10160 10162 10163 10164 10165 10166 10166 10167 10169 10170 10171 10173 10172 10172 10173 10174 10174 10175 10176 10177 10178 10177 10175 10172 10169 10166 10166 10166 10165 10164 10160 10158 10159 10155 10148 10145 10145 10144 10143 10142 10140 10138 10135 10133 10132 10130 10127 10124 10122 10119 10117 10114 10112 10110 10108 10106 10104 10103 10101 10099 10096 10093 10089 10085 10081 10077 10074 10072 10069 10066 10064 10060 10056 10052 10049 10045 10040 10036 10035 10031
10129 10134 10137 10141 10143 10144 10146 10148 10148 10149 10149 10149 10151 10153 10154 10156 10157 10157 10157 10158 10159 10160 10161 10161 10161 10161 10160 10159 10157 10155 10152 10150 10150 10151 10150 10145 10143 10145 10142 10135 10131 10130 10128 10127 10127 10125 10122 10121 10119 10117 10114 10111 10109 10106 10104 10101 10099 10096 10094 10093 10091 10089 10088 10086 10083 10081 10078 10074 10071 10068 10063 10060 10058 10055 10053 10051 10046 10042 10040 10037 10032 10026 10021 10020 10018
10108 10112 10116 10120 10122 10125 10128 10130 10131 10131 10132 10133 10135 10137 10138 10140 10142 10143 10143 10143 10144 10145 10145 10146 10145 10145 10145 10144 10141 10139 10137 10135 10134 10135 10135 10132 10130 10129 10127 10121 10117 10116 10115 10114 10113 10110 10107 10106 10105 10102 10099 10097 10094 10091 10088 10085 10083 10082 10080 10079 10077 10075 10073 10071 10068 10066 10063 10060 10057 10054 10049 10046 10043 10040 10038 10037 10033 10027 10025 10025 10021 10014 10007 10004 10003
10086 10090 10094 10097 10100 10103 10107 10111 10112 10114 10116 10117 10118 10120 10123 10124 10126 10128 10129 10128 10128 10129 10129 10130 10130 10129 10129 10127 10125 10123 10121 10120 10120 10119 10119 10118 10115 10113 10111 10108 10104 10103 10103 10101 10098 10094 10092 10092 10091 10088 10085 10082 10079 10076 10073 10071 10069 10067 10066 10065 10064 10062 10060 10058 10054 10051 10049 10046 10043 10040 10037 10033 10030 10027 10024 10022 10018 10013 10010 10009 10007 10003 9995 9989 9987
10068 10071 10075 10078 10081 10084 10088 10091 10094 10096 10098 10100 10102 10104 10106 10108 10110 10112 10112 10112 10112 10113 10113 10114 10114 10113 10112 10111 10110 10109 10107 10107 10106 10103 10101 10100 10099 10097 10098 10096 10092 10090 10090 10087 10082 10079 10079 10079 10076 10073 10070 10068 10065 10062 10060 10058 10056 10054 10054 10052 10051 10049 10047 10044 10041 10037 10035 10033 10031 10027 10025 10022 10018 10015 10012 10009 10004 9999 9995 9993 9991 9988 9982 9977 9974
10052 10056 10059 10061 10064 10067 10069 10072 10075 10076 10079 10082 10085 10087 10089 10091 10093 10095 10096 10096 10096 10096 10097 10098 10098 10097 10096 10096 10096 10096 10095 10093 10091 10088 10086 10086 10083 10081 10082 10082 10079 10077 10076 10072 10067 10065 10065 10064 10060 10057 10056 10054 10051 10048 10046 10044 10043 10041 10040 10039 10037 10035 10033 10030 10027 10023 10020 10019 10017 10014 10012 10009 10005 10002 9999 9996 9991 9985 9980 9977 9974 9971 9968 9964 9961
10036 10041 10044 10046 10048 10050 10051 10054 10057 10059 10061 10063 10066 10069 10072 10074 10076 10077 10078 10078 10079 10079 10081 10082 10081 10081 10082 10083 10082 10082 10081 10079 10076 10074 10073 10071 10068 10065 10065 10066 10065 10064 10062 10059 10055 10052 10050 10047 10044 10042 10041 10039 10036 10034 10032 10030 10028 10026 10025 10023 10022 10020 10018 10015 10012 10009 10006 10004 10002 10000 9999 9996 9993 9989 9985 9982 9979 9973 9966 9961 9956 9954 9953 9951 9947
10020 10024 10027 10029 10031 10033 10034 10037 10040 10043 10045 10047 10048 10050 10053 10055 10057 10059 10060 10061 10061 10062 10063 10065 10065 10066 10067 10068 10067 10067 10066 10064 10061 10059 10057 10055 10053 10051 10050 10050 10050 10049 10047 10044 10040 10037 10034 10031 10027 10026 10025 10023 10022 10020 10017 10015 10013 10011 10009 10007 10006 10005 10003 10001 9998 9995 9992 9990 9988 9986 9985 9983 9980 9977 9973 9969 9967 9962 9954 9947 9941 9939 9939 9936 9932
10004 10009 10010 10011 10014 10016 10017 10020 10023 10025 10029 10030 10030 10032 10033 10035 10038 10040 10041 10043 10044 10044 10045 10048 10050 10051 10052 10051 10051 10051 10050 10049 10046 10043 10040 10039 10038 10036 10036 10035 10034 10032 10031 10028 10024 10021 10018 10013 10010 10010 10009 10008 10006 10004 10002 10000 9998 9995 9993 9991 9990 9990 9989 9986 9984 9981 9978 9977 9974 9972 9971 9969 9967 9964 9960 9956 9953 9949 9942 9935 9930 9927 9926 9922 9917
9985 9993 9995 9995 9996 9998 10000 10003 10004 10006 10009 10011 10013 10014 10015 10016 10018 10020 10021 10023 10026 10028 10029 10030 10032 10033 10034 10034 10034 10034 10033 10032 10030 10027 10025 10024 10022 10021 10021 10019 10016 10016 10016 10012 10006 10003 10001 9997 9995 9994 9994 9992 9991 9989 9987 9985 9983 9981 9979 9976 9974 9974 9973 9972 9970 9967 9964 9962 9961 9959 9957 9955 9952 9951 9947 9942 9938 9934 9930 9924 9919 9916 9914 9911 9909
9966 9973 9978 9979 9979 9981 9983 9985 9986 9987 9989 9992 9995 9997 9998 9999 9999 9999 10001 10004 10008 10011 10012 10012 10013 10015 10016 10016 10017 10017 10016 10015 10013 10011 10009 10008 10007 10006 10005 10002 10001 10002 10000 9994 9989 9988 9986 9982 9980 9980 9979 9978 9976 9973 9972 9971 9969 9966 9965 9962 9960 9959 9958 9956 9955 9953 9949 9947 9946 9945 9943 9940 9938 9936 9934 9929 9924 9919 9915 9911 9907 9904 9902 9901 9902
9949 9954 9959 9961 9962 9964 9966 9968 9969 9970 9971 9973 9976 9978 9979 9980 9981 9982 9984 9986 9988 9991 9994 9994 9995 9996 9997 9998 10000 9999 9998 9997 9996 9994 9993 9992 9991 9991 9990 9989 9988 9985 9980 9975 9974 9974 9971 9968 9967 9966 9965 9963 9961 9958 9957 9956 9954 9953 9951 9949 9947 9945 9943 9941 9940 9938 9936 9934 9932 9930 9929 9926 9923 9921 9919 9915 9911 9906 9902 9898 9894 9890 9889 9891 9893
9933 9937 9940 9943 9945 9947 9950 9952 9954 9955 9955 9956 9958 9960 9961 9962 9964 9965 9967 9968 9970 9973 9975 9976 9977 9978 9980 9983 9983 9981 9979 9979 9978 9977 9977 9976 9976 9976 9977 9975 9971 9965 9961 9960 9961 9959 9957 9955 9955 9953 9952 9950 9947 9945 9943 9942 9940 9939 9938 9935 9933 9931 9929 9927 9926 9924 9922 9920 9918 9917 9915 9912 9909 9907 9904 9901 9897 9893 9889 9886 9882 9879 9878 9880 9882
9917 9920 9922 9924 9926 9929 9933 9937 9939 9941 9940 9940 9942 9944 9945 9946 9947 9948 9950 9952 9954 9955 9957 9959 9960 9961 9964 9967 9966 9963 9961 9961 9961 9962 9962 9962 9962 9963 9961 9956 9950 9947 9947 9949 9948 9945 9943 9943 9941 9939 9938 9936 9934 9932 9931 9929 9927 9926 9925 9922 9920 9918 9916 9914 9912 9911 9909 9907 9905 9903 9901 9898 9895 9892 9890 9887 9884 9879 9874 9871 9869 9870 9870 9869 9868
9901 9903 9905 9907 9908 9911 9915 9919 9922 9924 9925 9926 9927 9928 9929 9930 9931 9932 9934 9935 9937 9939 9941 9943 9945 9946 9948 9950 9948 9945 9944 9944 9946 9947 9948 9948 9948 9946 9941 9936 9935 9936 9937 9936 9934 9932 9931 9930 9928 9926 9924 9923 9922 9920 9918 9916 9915 9913 9911 9909 9907 9905 9903 9901 9899 9898 9896 9894 9892 9890 9888 9885 9881 9877 9875 9872 9870 9866 9862 9858 9857 9859 9861 9859 9854
9886 9888 9890 9891 9893 9896 9900 9903 9905 9908 9909 9911 9911 9912 9913 9914 9916 9917 9918 9920 9921 9924 9926 9929 9931 9932 9933 9933 9932 9930 9929 9930 9932 9933 9933 9931 9930 9926 9924 9924 9925 9925 9924 9922 9920 9919 9919 9917 9915 9913 9911 9910 9910 9908 9906 9904 9902 9899 9897 9895 9893 9892 9891 9889 9887 9886 9884 9882 9880 9878 9876 9873 9869 9865 9861 9858 9855 9853 9850 9847 9846 9848 9850 9848 9844
9873 9875 9876 9877 9879 9882 9885 9888 9891 9893 9894 9896 9897 9897 9899 9901 9902 9903 9904 9906 9908 9910 9913 9915 9917 9918 9918 9917 9917 9916 9915 9916 9917 9918 9916 9914 9913 9912 9913 9914 9913 9910 9909 9908 9907 9907 9906 9904 9902 9900 9898 9897 9896 9894 9892 9890 9888 9886 9884 9881 9879 9879 9878 9878 9876 9874 9872 9870 9868 9866 9864 9860 9857 9853 9848 9844 9841 9838 9837 9836 9836 9836 9836 9835 9832
9862 9864 9865 9865 9867 9869 9872 9875 9876 9877 9879 9881 9883 9884 9886 9887 9889 9890 9892 9893 9896 9898 9899 9901 9902 9902 9903 9903 9902 9902 9902 9902 9902 9902 9902 9901 9900 9900 9901 9900 9898 9897 9896 9896 9896 9895 9894 9892 9889 9887 9885 9883 9881 9880 9878 9876 9874 9872 9870 9868 9867 9866 9866 9865 9864 9863 9861 9858 9856 9854 9852 9848 9845 9841 9837 9832 9828 9825 9824 9824 9825 9825 9824 9822 9820
9851 9852 9853 9854 9855 9857 9860 9862 9863 9863 9865 9867 9869 9871 9873 9875 9876 9878 9880 9881 9883 9884 9885 9886 9887 9887 9887 9888 9889 9890 9890 9889 9888 9889 9889 9889 9888 9887 9887 9886 9885 9885 9884 9884 9883 9882 9880 9878 9876 9874 9871 9869 9867 9865 9864 9862 9860 9859 9857 9856 9855 9855 9854 9853 9852 9851 9850 9847 9844 9842 9840 9836 9833 9829 9824 9820 9817 9815 9814 9814 9813 9812 9812 9811 9808
9838 9840 9840 9842 9843 9846 9848 9850 9851 9852 9853 9855 9856 9859 9861 9863 9865 9867 9868 9869 9870 9871 9871 9871 9872 9872 9873 9876 9878 9878 9877 9875 9875 9875 9876 9876 9875 9874 9873 9872 9872 9872 9871 9870 9869 9867 9866 9864 9862 9860 9858 9856 9853 9852 9850 9848 9847 9846 9845 9844 9843 9843 9842 9841 9840 9839 9838 9837 9833 9830 9827 9824 9821 9817 9812 9808 9806 9805 9804 9804 9802 9801 9801 9800 9797
9826 9827 9828 9830 9832 9834 9836 9838 9839 9840 9841 9843 9844 9847 9849 9851 9853 9855 9856 9857 9857 9857 9857 9857 9857 9859 9862 9864 9864 9862 9861 9862 9863 9864 9863 9862 9861 9860 9859 9859 9858 9857 9857 9856 9854 9853 9852 9850 9848 9846 9844 9842 9840 9838 9837 9836 9834 9833 9832 9831 9830 9830 9830 9829 9828 9827 9827 9825 9822 9819 9815 9812 9808 9805 9801 9798 9796 9795 9795 9794 9792 9790 9790 9789 9787
9814 9815 9816 9818 9820 9821 9823 9825 9826 9827 9829 9831 9832 9834 9836 9837 9839 9841 9842 9843 9843 9843 9843 9843 9844 9847 9849 9849 9847 9848 9849 9850 9851 9850 9849 9848 9847 9845 9845 9845 9844 9843 9843 9842 9841 9839 9838 9836 9834 9832 9831 9829 9828 9826 9825 9823 9822 9820 9819 9818 9818 9818 9818 9817 9816 9815 9815 9813 9810 9807 9804 9800 9796 9793 9790 9788 9786 9785 9784 9783 9782 9781 9780 9779 9777
9803 9804 9805 9806 9808 9809 9811 9812 9813 9815 9816 9818 9819 9821 9822 9823 9825 9826 9826 9827 9828 9828 9828 9830 9832 9833 9834 9833 9834 9836 9837 9837 9837 9836 9835 9834 9833 9832 9832 9831 9830 9830 9830 9829 9828 9826 9824 9822 9821 9820 9818 9817 9816 9814 9813 9811 9810 9808 9807 9807 9806 9806 9806 9806 9805 9804 9802 9801 9799 9796 9792 9788 9784 9781 9780 9778 9776 9775 9774 9773 9772 9771 9770 9770 9769
9792 9793 9794 9795 9796 9797 9799 9800 9801 9802 9804 9804 9806 9807 9808 9809 9810 9811 9811 9812 9812 9813 9814 9816 9817 9818 9819 9820 9822 9823 9823 9822 9822 9822 9820 9820 9820 9819 9819 9819 9818 9818 9817 9816 9815 9814 9812 9810 9809 9807 9806 9804 9803 9801 9800 9799 9798 9797 9797 9796 9795 9795 9794 9794 9793 9792 9790 9788 9786 9784 9780 9776 9773 9772 9771 9769 9766 9765 9764 9763 9762 9761 9761 9761 9761
9780 9781 9782 9783 9785 9786 9787 9788 9789 9790 9791 9792 9792 9793 9794 9795 9795 9796 9797 9798 9799 9800 9802 9802 9803 9805 9807 9808 9809 9809 9808 9808 9808 9807 9807 9807 9807 9806 9806 9806 9806 9805 9805 9804 9803 9802 9800 9799 9797 9795 9794 9792 9791 9790 9789 9788 9787 9787 9786 9785 9784 9784 9783 9782 9781 9779 9778 9777 9774 9771 9768 9765 9764 9763 9763 9760 9757 9756 9755 9754 9753 9752 9751 9751 9752
9770 9770 9771 9772 9773 9774 9775 9776 9777 9778 9779 9779 9780 9781 9782 9783 9784 9785 9786 9787 9788 9789 9790 9791 9792 9794 9794 9795 9795 9795 9794 9794 9795 9794 9794 9795 9794 9793 9793 9793 9793 9792 9792 9791 9790 9789 9788 9786 9785 9784 9782 9781 9780 9779 9779 9778 9777 9776 9775 9774 9773 9772 9771 9770 9769 9768 9767 9765 9762 9759 9757 9755 9755 9755 9754 9752 9749 9747 9746 9746 9745 9744 9742 9742 9743
9760 9760 9761 9761 9762 9763 9763 9764 9765 9766 9767 9768 9769 9770 9771 9772 9773 9774 9776 9777 9778 9779 9779 9780 9781 9781 9781 9781 9781 9781 9781 9781 9782 9782 9782 9782 9782 9781 9781 9780 9780 9779 9779 9778 9777 9776 9775 9774 9774 9773 9771 9770 9770 9769 9768 9767 9766 9765 9764 9763 9762 9761 9760 9759 9759 9758 9756 9754 9751 9748 9747 9746 9745 9746 9745 9743 9741 9739 9738 9737 9737 9736 9734 9734 9735
9750 9750 9751 9752 9752 9753 9754 9755 9755 9756 9757 9758 9759 9760 9761 9762 9763 9764 9765 9766 9766 9767 9768 9768 9768 9768 9769 9769 9769 9769 9769 9769 9770 9770 9770 9770 9770 9769 9769 9768 9768 9767 9766 9766 9765 9764 9764 9763 9762 9761 9760 9759 9758 9757 9756 9755 9754 9754 9753 9752 9751 9750 9749 9749 9748 9746 9744 9742 9740 9739 9738 9737 9736 9736 9736 9734 9732 9731 9729 9729 9729 9728 9726 9726 9728